| time (UTC) | temp C | wind direction | speed KPH | gust KPH | rain 1hr cm | rain 24hr cm | rain mn cm | humidity % | barometer mb |
| 20260503033038 | 6 | 49 | 1.6 | 8.0 | 0.00 | 0.71 | 0.66 | 58 | 1010.1 |
| 20260503031543 | 6 | 52 | 0.0 | 4.8 | 0.00 | 0.71 | 0.66 | 58 | 1010.1 |
| 20260503030044 | 7 | 68 | 1.6 | 8.0 | 0.00 | 0.71 | 0.66 | 57 | 1010.3 |
| 20260503024540 | 7 | 0 | 0.0 | 3.2 | 0.00 | 0.71 | 0.66 | 57 | 1010.4 |
| 20260503023041 | 7 | 0 | 0.0 | 3.2 | 0.00 | 0.71 | 0.66 | 57 | 1010.3 |
| 20260503021539 | 7 | 0 | 0.0 | 0.0 | 0.00 | 0.71 | 0.66 | 59 | 1010.5 |
| 20260503020044 | 7 | 0 | 0.0 | 1.6 | 0.00 | 0.71 | 0.66 | 56 | 1010.6 |
| 20260503014551 | 8 | 68 | 0.0 | 4.8 | 0.00 | 0.71 | 0.66 | 52 | 1010.5 |
| 20260503013042 | 8 | 0 | 0.0 | 1.6 | 0.00 | 0.71 | 0.66 | 52 | 1010.3 |
| 20260503011540 | 8 | 0 | 0.0 | 1.6 | 0.00 | 0.71 | 0.66 | 49 | 1010.2 |
| 20260503010039 | 9 | 53 | 3.2 | 11.3 | 0.00 | 0.71 | 0.66 | 47 | 1010.0 |
| 20260503004537 | 10 | 74 | 0.0 | 9.7 | 0.00 | 0.71 | 0.66 | 46 | 1009.7 |
| 20260503003049 | 10 | 63 | 0.0 | 6.4 | 0.00 | 0.71 | 0.66 | 45 | 1009.8 |
| 20260503001549 | 10 | 64 | 1.6 | 6.4 | 0.00 | 0.71 | 0.66 | 43 | 1009.5 |
| 20260503000048 | 11 | 0 | 0.0 | 4.8 | 0.00 | 0.71 | 0.66 | 39 | 1009.3 |
| 20260502234552 | 11 | 0 | 1.6 | 8.0 | 0.00 | 0.71 | 0.66 | 40 | 1009.3 |
| 20260502233046 | 11 | 234 | 1.6 | 12.9 | 0.00 | 0.71 | 0.66 | 38 | 1009.2 |
| 20260502231538 | 11 | 5 | 0.0 | 4.8 | 0.00 | 0.71 | 0.66 | 38 | 1009.0 |
| 20260502230044 | 11 | 0 | 1.6 | 9.7 | 0.00 | 0.71 | 0.66 | 38 | 1008.9 |
| 20260502224543 | 11 | 0 | 0.0 | 6.4 | 0.00 | 0.71 | 0.66 | 40 | 1008.8 |
| 20260502223057 | 12 | 71 | 1.6 | 9.7 | 0.00 | 0.71 | 0.66 | 38 | 1008.7 |
| 20260502221539 | 12 | 208 | 1.6 | 4.8 | 0.00 | 0.71 | 0.66 | 41 | 1008.5 |
| 20260502220041 | 12 | 0 | 1.6 | 8.0 | 0.00 | 0.71 | 0.66 | 39 | 1008.5 |
| 20260502214552 | 12 | 0 | 1.6 | 8.0 | 0.00 | 0.71 | 0.66 | 44 | 1008.3 |
| 20260502213047 | 12 | 0 | 0.0 | 11.3 | 0.00 | 0.71 | 0.66 | 36 | 1008.2 |
| 20260502211550 | 12 | 225 | 1.6 | 4.8 | 0.00 | 0.71 | 0.66 | 42 | 1008.1 |
| 20260502210041 | 12 | 0 | 0.0 | 9.7 | 0.00 | 0.71 | 0.66 | 42 | 1008.0 |
| 20260502204541 | 12 | 0 | 0.0 | 6.4 | 0.00 | 0.71 | 0.66 | 39 | 1008.0 |
| 20260502203103 | 12 | 88 | 1.6 | 4.8 | 0.00 | 0.71 | 0.66 | 38 | 1008.0 |
| 20260502201542 | 13 | 150 | 0.0 | 9.7 | 0.00 | 0.71 | 0.66 | 36 | 1008.2 |
| 20260502200052 | 13 | 242 | 3.2 | 9.7 | 0.00 | 0.71 | 0.66 | 37 | 1008.3 |
| 20260502194544 | 13 | 105 | 1.6 | 6.4 | 0.00 | 0.71 | 0.66 | 42 | 1008.4 |
| 20260502193040 | 13 | 203 | 0.0 | 4.8 | 0.00 | 0.71 | 0.66 | 41 | 1008.6 |
| 20260502191544 | 12 | 0 | 0.0 | 4.8 | 0.00 | 0.71 | 0.66 | 42 | 1008.7 |
| 20260502190037 | 12 | 274 | 0.0 | 6.4 | 0.00 | 0.71 | 0.66 | 43 | 1008.7 |
| 20260502184545 | 12 | 296 | 3.2 | 9.7 | 0.00 | 0.71 | 0.66 | 44 | 1008.7 |
| 20260502183045 | 13 | 78 | 0.0 | 4.8 | 0.00 | 0.71 | 0.66 | 41 | 1008.8 |
| 20260502181545 | 13 | 180 | 0.0 | 8.0 | 0.00 | 0.71 | 0.66 | 41 | 1008.7 |
| 20260502163047 | 12 | 0 | 1.6 | 6.4 | 0.00 | 0.71 | 0.66 | 48 | 1009.2 |
| 20260502161554 | 12 | 0 | 0.0 | 12.9 | 0.00 | 0.71 | 0.66 | 53 | 1009.4 |
| 20260502151541 | 10 | 80 | 1.6 | 6.4 | 0.00 | 0.71 | 0.66 | 61 | 1010.0 |
| 20260502123107 | 7 | 0 | 1.6 | 8.0 | 0.03 | 0.71 | 0.66 | 89 | 1010.2 |
| 20260502121541 | 6 | 62 | 0.0 | 4.8 | 0.03 | 0.71 | 0.66 | 90 | 1009.9 |
| 20260502114537 | 7 | 0 | 1.6 | 6.4 | 0.03 | 0.71 | 0.66 | 92 | 1010.0 |
| 20260502113049 | 7 | 84 | 0.0 | 6.4 | 0.03 | 0.69 | 0.64 | 92 | 1009.7 |
| 20260502111546 | 8 | 0 | 0.0 | 6.4 | 0.03 | 0.69 | 0.64 | 95 | 1009.8 |
| 20260502110043 | 8 | 0 | 0.0 | 0.0 | 0.03 | 0.69 | 0.64 | 95 | 1009.5 |
| 20260502104541 | 8 | 0 | 0.0 | 0.0 | 0.03 | 0.69 | 0.64 | 95 | 1009.3 |
| 20260502103039 | 8 | 0 | 0.0 | 0.0 | 0.00 | 0.66 | 0.61 | 95 | 1009.2 |
| 20260502101540 | 8 | 0 | 0.0 | 0.0 | 0.03 | 0.66 | 0.61 | 95 | 1009.1 |
| 20260502070100 | 7 | 0 | 0.0 | 3.2 | 0.20 | 0.51 | 0.46 | 93 | 1009.3 |
| 20260502064552 | 8 | 206 | 1.6 | 3.2 | 0.15 | 0.43 | 0.38 | 93 | 1009.5 |
| 20260502063043 | 7 | 0 | 0.0 | 0.0 | 0.15 | 0.38 | 0.33 | 92 | 1009.3 |
| 20260502061538 | 8 | 0 | 0.0 | 3.2 | 0.15 | 0.33 | 0.28 | 91 | 1009.3 |
| 20260502060037 | 8 | 0 | 0.0 | 0.0 | 0.20 | 0.30 | 0.25 | 91 | 1009.4 |
| 20260502054538 | 8 | 0 | 0.0 | 3.2 | 0.18 | 0.28 | 0.23 | 90 | 1009.3 |
| 20260502053039 | 8 | 0 | 1.6 | 6.4 | 0.13 | 0.23 | 0.18 | 91 | 1009.4 |
| 20260502051556 | 8 | 0 | 0.0 | 0.0 | 0.08 | 0.15 | 0.10 | 90 | 1009.6 |
| 20260502050045 | 8 | 0 | 0.0 | 0.0 | 0.03 | 0.10 | 0.05 | 90 | 1009.4 |
| 20260502044543 | 8 | 0 | 0.0 | 0.0 | 0.05 | 0.10 | 0.05 | 89 | 1009.5 |
| 20260502043039 | 8 | 0 | 0.0 | 0.0 | 0.08 | 0.10 | 0.05 | 88 | 1009.7 |
| 20260502041537 | 9 | 0 | 0.0 | 0.0 | 0.08 | 0.08 | 0.03 | 86 | 1009.5 |
| 20260502040045 | 9 | 0 | 0.0 | 0.0 | 0.05 | 0.05 | 0.00 | 83 | 1009.7 |
| 20260502034543 | 10 | 0 | 0.0 | 0.0 | 0.05 | 0.05 | 0.05 | 80 | 1009.6 |